Time,TemperatureF,DewpointF,PressureIn,WindDirection,WindDirectionDegrees,WindSpeedMPH,WindSpeedGustMPH,Humidity,HourlyPrecipIn,Conditions,Clouds,dailyrainin,SoftwareType,DateUTC
2013-07-20 00:09:00,73.2,70.0,29.95,East,97,0.0,1.0,89,0.00,,,0.00,weatherlink.com 1.10,2013-07-20 05:09:00,
2013-07-20 00:29:00,72.8,70.0,29.94,SSE,165,0.0,2.0,90,0.00,,,0.00,weatherlink.com 1.10,2013-07-20 05:29:00,
2013-07-20 00:39:00,72.6,70.0,29.94,SSE,165,0.0,0.0,90,0.00,,,0.00,weatherlink.com 1.10,2013-07-20 05:39:00,
2013-07-20 00:54:00,72.3,69.0,29.94,SSE,165,0.0,0.0,90,0.00,,,0.00,weatherlink.com 1.10,2013-07-20 05:54:00,
2013-07-20 01:09:00,72.0,69.0,29.94,SSE,165,0.0,0.0,91,0.00,,,0.00,weatherlink.com 1.10,2013-07-20 06:09:00,
2013-07-20 01:24:00,71.7,69.0,29.95,SSE,165,0.0,0.0,91,0.00,,,0.00,weatherlink.com 1.10,2013-07-20 06:24:00,
2013-07-20 01:39:00,71.5,69.0,29.95,SSE,165,0.0,0.0,92,0.00,,,0.00,weatherlink.com 1.10,2013-07-20 06:39:00,
2013-07-20 01:54:00,71.3,69.0,29.95,SSE,165,0.0,0.0,92,0.00,,,0.00,weatherlink.com 1.10,2013-07-20 06:54:00,
2013-07-20 02:09:00,71.1,69.0,29.95,SSE,165,0.0,0.0,92,0.00,,,0.00,weatherlink.com 1.10,2013-07-20 07:09:00,
2013-07-20 02:24:00,71.0,69.0,29.95,SSE,165,0.0,0.0,93,0.00,,,0.00,weatherlink.com 1.10,2013-07-20 07:24:00,
2013-07-20 02:39:00,70.9,69.0,29.95,SSE,165,0.0,0.0,93,0.00,,,0.00,weatherlink.com 1.10,2013-07-20 07:39:00,
2013-07-20 02:55:00,70.6,69.0,29.96,SSE,165,0.0,0.0,93,0.00,,,0.00,weatherlink.com 1.10,2013-07-20 07:55:00,
2013-07-20 03:10:00,70.4,68.0,29.95,SSE,165,0.0,0.0,93,0.00,,,0.00,weatherlink.com 1.10,2013-07-20 08:10:00,
2013-07-20 03:25:00,70.2,68.0,29.96,SSE,165,0.0,0.0,93,0.00,,,0.00,weatherlink.com 1.10,2013-07-20 08:25:00,
2013-07-20 03:40:00,70.0,68.0,29.96,SSE,165,0.0,0.0,94,0.00,,,0.00,weatherlink.com 1.10,2013-07-20 08:40:00,
2013-07-20 03:55:00,69.9,68.0,29.95,SSE,165,0.0,0.0,94,0.00,,,0.00,weatherlink.com 1.10,2013-07-20 08:55:00,
2013-07-20 04:10:00,69.8,68.0,29.95,SSE,165,0.0,0.0,94,0.00,,,0.00,weatherlink.com 1.10,2013-07-20 09:10:00,
2013-07-20 04:25:00,69.6,68.0,29.95,SSE,165,0.0,0.0,94,0.00,,,0.00,weatherlink.com 1.10,2013-07-20 09:25:00,
2013-07-20 04:40:00,69.5,68.0,29.95,SSE,165,0.0,0.0,94,0.00,,,0.00,weatherlink.com 1.10,2013-07-20 09:40:00,
2013-07-20 04:55:00,69.3,68.0,29.95,SSE,165,0.0,0.0,94,0.00,,,0.00,weatherlink.com 1.10,2013-07-20 09:55:00,
2013-07-20 05:10:00,69.2,68.0,29.95,SSE,165,0.0,0.0,94,0.00,,,0.00,weatherlink.com 1.10,2013-07-20 10:10:00,
2013-07-20 05:25:00,69.0,68.0,29.95,SSE,165,0.0,0.0,95,0.00,,,0.00,weatherlink.com 1.10,2013-07-20 10:25:00,
2013-07-20 05:40:00,68.9,68.0,29.95,SSE,165,0.0,0.0,95,0.00,,,0.00,weatherlink.com 1.10,2013-07-20 10:40:00,
2013-07-20 05:55:00,68.9,68.0,29.95,SSE,165,0.0,0.0,95,0.00,,,0.00,weatherlink.com 1.10,2013-07-20 10:55:00,
2013-07-20 06:10:00,68.7,67.0,29.95,SSE,165,0.0,0.0,95,0.00,,,0.00,weatherlink.com 1.10,2013-07-20 11:10:00,
2013-07-20 06:25:00,68.5,67.0,29.95,SSE,165,0.0,0.0,95,0.00,,,0.00,weatherlink.com 1.10,2013-07-20 11:25:00,
2013-07-20 06:40:00,68.3,67.0,29.95,SSE,165,0.0,0.0,95,0.00,,,0.00,weatherlink.com 1.10,2013-07-20 11:40:00,
2013-07-20 06:55:00,68.2,67.0,29.96,SSE,165,0.0,0.0,95,0.00,,,0.00,weatherlink.com 1.10,2013-07-20 11:55:00,
2013-07-20 07:10:00,68.2,67.0,29.96,SSE,165,0.0,0.0,95,0.00,,,0.00,weatherlink.com 1.10,2013-07-20 12:10:00,
2013-07-20 07:25:00,68.6,68.0,29.96,SSE,165,0.0,0.0,96,0.00,,,0.00,weatherlink.com 1.10,2013-07-20 12:25:00,
2013-07-20 07:40:00,69.0,68.0,29.96,SSE,165,0.0,0.0,96,0.00,,,0.00,weatherlink.com 1.10,2013-07-20 12:40:00,
2013-07-20 07:55:00,70.1,69.0,29.95,SSE,165,0.0,0.0,96,0.00,,,0.00,weatherlink.com 1.10,2013-07-20 12:55:00,
2013-07-20 08:10:00,71.8,71.0,29.96,SSE,165,0.0,0.0,97,0.00,,,0.00,weatherlink.com 1.10,2013-07-20 13:10:00,
2013-07-20 08:25:00,73.7,73.0,29.95,SSE,165,0.0,0.0,96,0.00,,,0.00,weatherlink.com 1.10,2013-07-20 13:25:00,
2013-07-20 08:40:00,75.6,74.0,29.95,SSE,165,0.0,0.0,94,0.00,,,0.00,weatherlink.com 1.10,2013-07-20 13:40:00,
2013-07-20 08:55:00,78.0,73.0,29.95,NE,44,0.0,1.0,84,0.00,,,0.00,weatherlink.com 1.10,2013-07-20 13:55:00,
2013-07-20 09:10:00,79.9,74.0,29.95,NNW,336,0.0,1.0,81,0.00,,,0.00,weatherlink.com 1.10,2013-07-20 14:10:00,
2013-07-20 09:25:00,80.2,73.0,29.95,NW,304,0.0,2.0,78,0.00,,,0.00,weatherlink.com 1.10,2013-07-20 14:25:00,
2013-07-20 09:40:00,80.5,72.0,29.95,NW,321,0.0,2.0,75,0.00,,,0.00,weatherlink.com 1.10,2013-07-20 14:40:00,
2013-07-20 09:55:00,82.1,73.0,29.95,NW,308,0.0,1.0,73,0.00,,,0.00,weatherlink.com 1.10,2013-07-20 14:55:00,
2013-07-20 10:10:00,83.0,74.0,29.95,NNW,331,0.0,0.0,73,0.00,,,0.00,weatherlink.com 1.10,2013-07-20 15:10:00,
2013-07-20 10:25:00,84.2,75.0,29.95,NW,317,0.0,3.0,73,0.00,,,0.00,weatherlink.com 1.10,2013-07-20 15:25:00,
2013-07-20 10:40:00,84.9,75.0,29.94,West,280,0.0,4.0,72,0.00,,,0.00,weatherlink.com 1.10,2013-07-20 15:40:00,
2013-07-20 10:55:00,86.0,75.0,29.94,NW,306,0.0,5.0,69,0.00,,,0.00,weatherlink.com 1.10,2013-07-20 15:55:00,
2013-07-20 11:11:00,87.3,75.0,29.94,SSW,209,2.0,5.0,67,0.00,,,0.00,weatherlink.com 1.10,2013-07-20 16:11:00,
2013-07-20 11:26:00,88.5,76.0,29.94,NNW,338,0.0,3.0,67,0.00,,,0.00,weatherlink.com 1.10,2013-07-20 16:26:00,
2013-07-20 11:41:00,88.4,75.0,29.95,WSW,240,0.0,4.0,65,0.00,,,0.00,weatherlink.com 1.10,2013-07-20 16:41:00,
2013-07-20 11:56:00,88.1,74.0,29.94,WNW,288,0.0,5.0,64,0.00,,,0.00,weatherlink.com 1.10,2013-07-20 16:56:00,
2013-07-20 12:11:00,87.8,74.0,29.94,NNW,327,0.0,5.0,64,0.00,,,0.00,weatherlink.com 1.10,2013-07-20 17:11:00,
2013-07-20 12:26:00,87.4,73.0,29.94,WNW,288,2.0,4.0,63,0.00,,,0.00,weatherlink.com 1.10,2013-07-20 17:26:00,
2013-07-20 12:41:00,88.6,75.0,29.93,NW,326,1.0,2.0,65,0.00,,,0.00,weatherlink.com 1.10,2013-07-20 17:41:00,
2013-07-20 12:56:00,88.7,74.0,29.93,WNW,297,0.0,3.0,61,0.00,,,0.00,weatherlink.com 1.10,2013-07-20 17:56:00,
2013-07-20 13:11:00,88.9,73.0,29.92,NW,309,0.0,6.0,59,0.00,,,0.00,weatherlink.com 1.10,2013-07-20 18:11:00,
2013-07-20 13:26:00,89.4,73.0,29.91,NW,315,2.0,5.0,58,0.00,,,0.00,weatherlink.com 1.10,2013-07-20 18:26:00,
2013-07-20 13:41:00,90.1,72.0,29.91,NW,306,1.0,5.0,55,0.00,,,0.00,weatherlink.com 1.10,2013-07-20 18:41:00,
2013-07-20 14:11:00,91.9,69.0,29.90,NNW,346,1.0,6.0,48,0.00,,,0.00,weatherlink.com 1.10,2013-07-20 19:11:00,
2013-07-20 14:26:00,91.4,69.0,29.90,North,360,1.0,6.0,48,0.00,,,0.00,weatherlink.com 1.10,2013-07-20 19:26:00,
2013-07-20 14:41:00,90.0,72.0,29.91,SSW,204,4.0,8.0,56,0.00,,,0.00,weatherlink.com 1.10,2013-07-20 19:41:00,
2013-07-20 14:56:00,85.6,73.0,29.90,South,189,3.0,9.0,66,0.00,,,0.00,weatherlink.com 1.10,2013-07-20 19:56:00,
2013-07-20 15:41:00,82.0,70.0,29.91,South,170,2.0,7.0,68,0.00,,,0.00,weatherlink.com 1.10,2013-07-20 20:41:00,
2013-07-20 15:56:00,81.8,70.0,29.91,SSW,202,2.0,7.0,67,0.00,,,0.00,weatherlink.com 1.10,2013-07-20 20:56:00,
2013-07-20 16:11:00,81.8,70.0,29.91,South,179,0.0,7.0,67,0.00,,,0.00,weatherlink.com 1.10,2013-07-20 21:11:00,
2013-07-20 16:26:00,81.2,71.0,29.90,SSW,197,0.0,6.0,72,0.00,,,0.00,weatherlink.com 1.10,2013-07-20 21:26:00,
2013-07-20 16:41:00,80.5,72.0,29.90,SW,215,0.0,3.0,76,0.00,,,0.00,weatherlink.com 1.10,2013-07-20 21:41:00,
2013-07-20 16:56:00,79.8,73.0,29.90,South,182,0.0,6.0,79,0.00,,,0.00,weatherlink.com 1.10,2013-07-20 21:56:00,
2013-07-20 17:11:00,79.4,73.0,29.90,SSW,213,2.0,7.0,81,0.00,,,0.00,weatherlink.com 1.10,2013-07-20 22:11:00,
2013-07-20 17:26:00,79.3,73.0,29.89,SSW,194,1.0,6.0,82,0.00,,,0.00,weatherlink.com 1.10,2013-07-20 22:26:00,
2013-07-20 17:56:00,80.7,74.0,29.88,SSW,200,2.0,4.0,81,0.00,,,0.00,weatherlink.com 1.10,2013-07-20 22:56:00,
2013-07-20 18:11:00,81.8,75.0,29.87,SW,216,4.0,7.0,79,0.00,,,0.00,weatherlink.com 1.10,2013-07-20 23:11:00,
2013-07-20 18:56:00,82.3,74.0,29.86,SSW,200,2.0,9.0,75,0.00,,,0.00,weatherlink.com 1.10,2013-07-20 23:56:00,
2013-07-20 19:11:00,82.2,73.0,29.86,WSW,241,1.0,4.0,74,0.00,,,0.00,weatherlink.com 1.10,2013-07-21 00:11:00,
2013-07-20 19:26:00,81.9,73.0,29.87,SSW,205,2.0,4.0,75,0.00,,,0.00,weatherlink.com 1.10,2013-07-21 00:26:00,
2013-07-20 19:56:00,80.9,72.0,29.87,South,182,0.0,2.0,75,0.00,,,0.00,weatherlink.com 1.10,2013-07-21 00:56:00,
2013-07-20 20:11:00,80.5,73.0,29.88,South,182,0.0,0.0,77,0.00,,,0.00,weatherlink.com 1.10,2013-07-21 01:11:00,
2013-07-20 20:26:00,79.8,72.0,29.88,South,182,0.0,0.0,78,0.00,,,0.00,weatherlink.com 1.10,2013-07-21 01:26:00,
2013-07-20 20:41:00,78.9,72.0,29.88,South,182,0.0,0.0,80,0.00,,,0.00,weatherlink.com 1.10,2013-07-21 01:41:00,
2013-07-20 20:56:00,78.2,72.0,29.88,South,182,0.0,0.0,82,0.00,,,0.00,weatherlink.com 1.10,2013-07-21 01:56:00,
2013-07-20 21:11:00,77.4,72.0,29.88,South,182,0.0,0.0,83,0.00,,,0.00,weatherlink.com 1.10,2013-07-21 02:11:00,
2013-07-20 21:26:00,76.6,72.0,29.88,South,182,0.0,0.0,85,0.00,,,0.00,weatherlink.com 1.10,2013-07-21 02:26:00,
2013-07-20 21:41:00,76.0,72.0,29.88,South,182,0.0,0.0,86,0.00,,,0.00,weatherlink.com 1.10,2013-07-21 02:41:00,
2013-07-20 21:56:00,75.5,71.0,29.89,South,182,0.0,0.0,87,0.00,,,0.00,weatherlink.com 1.10,2013-07-21 02:56:00,
2013-07-20 22:11:00,75.1,71.0,29.89,South,182,0.0,0.0,88,0.00,,,0.00,weatherlink.com 1.10,2013-07-21 03:11:00,
2013-07-20 22:56:00,73.7,70.0,29.90,South,182,0.0,0.0,89,0.00,,,0.00,weatherlink.com 1.10,2013-07-21 03:56:00,
2013-07-20 23:11:00,73.3,70.0,29.91,South,182,0.0,0.0,90,0.00,,,0.00,weatherlink.com 1.10,2013-07-21 04:11:00,
2013-07-20 23:26:00,73.0,70.0,29.91,South,182,0.0,0.0,90,0.00,,,0.00,weatherlink.com 1.10,2013-07-21 04:26:00,
2013-07-20 23:41:00,72.8,70.0,29.92,South,182,0.0,0.0,91,0.00,,,0.00,weatherlink.com 1.10,2013-07-21 04:41:00,
2013-07-20 23:56:00,72.6,70.0,29.92,South,182,0.0,0.0,92,0.00,,,0.00,weatherlink.com 1.10,2013-07-21 04:56:00,